TimeEDT,TemperatureF,Dew PointF,Humidity,Sea Level PressureIn,VisibilityMPH,Wind Direction,Wind SpeedMPH,Gust SpeedMPH,PrecipitationIn,Events,Conditions,WindDirDegrees,DateUTC
12:54 AM,71.1,66.0,84,30.02,10.0,SSW,8.1,-,N/A,,Clear,200,2013-09-20 04:54:00
1:54 AM,70.0,66.0,87,30.01,10.0,SSE,4.6,-,N/A,,Clear,160,2013-09-20 05:54:00
2:54 AM,69.1,66.0,90,30.02,9.0,SE,5.8,-,N/A,,Clear,140,2013-09-20 06:54:00
3:54 AM,69.1,66.0,90,30.01,9.0,South,8.1,-,N/A,,Clear,180,2013-09-20 07:54:00
4:54 AM,69.1,64.9,87,30.00,10.0,South,8.1,-,N/A,,Clear,180,2013-09-20 08:54:00
5:54 AM,68.0,64.9,90,29.99,10.0,South,6.9,-,N/A,,Clear,190,2013-09-20 09:54:00
6:54 AM,66.9,64.0,90,29.99,8.0,SSE,6.9,-,N/A,,Clear,160,2013-09-20 10:54:00
7:54 AM,68.0,64.9,90,30.00,7.0,SSE,8.1,-,N/A,,Clear,160,2013-09-20 11:54:00
8:54 AM,71.1,66.0,84,29.99,9.0,South,8.1,-,N/A,,Clear,180,2013-09-20 12:54:00
9:54 AM,73.9,66.0,76,30.00,10.0,SSW,10.4,-,N/A,,Partly Cloudy,210,2013-09-20 13:54:00
10:54 AM,79.0,66.0,64,29.99,10.0,SSW,13.8,-,N/A,,Clear,210,2013-09-20 14:54:00
11:54 AM,82.0,64.9,56,29.97,10.0,SW,12.7,-,N/A,,Clear,230,2013-09-20 15:54:00
12:54 PM,82.9,64.9,54,29.96,10.0,SW,16.1,-,N/A,,Clear,230,2013-09-20 16:54:00
1:54 PM,84.9,64.9,51,29.93,10.0,SW,11.5,-,N/A,,Clear,220,2013-09-20 17:54:00
2:54 PM,84.0,64.9,53,29.90,10.0,SW,9.2,-,N/A,,Partly Cloudy,230,2013-09-20 18:54:00
3:54 PM,86.0,64.9,49,29.87,10.0,SSW,13.8,-,N/A,,Partly Cloudy,210,2013-09-20 19:54:00
4:54 PM,84.9,64.0,49,29.85,10.0,SSW,15.0,21.9,N/A,,Partly Cloudy,210,2013-09-20 20:54:00
5:54 PM,82.0,66.0,58,29.85,10.0,South,11.5,-,N/A,,Clear,180,2013-09-20 21:54:00
6:54 PM,80.1,66.0,62,29.84,10.0,South,9.2,-,N/A,,Clear,190,2013-09-20 22:54:00
7:54 PM,75.9,64.9,69,29.85,10.0,South,5.8,-,N/A,,Clear,180,2013-09-20 23:54:00
8:54 PM,75.9,64.9,69,29.83,10.0,South,9.2,-,N/A,,Clear,180,2013-09-21 00:54:00
9:54 PM,75.0,64.9,71,29.83,10.0,South,6.9,-,N/A,,Scattered Clouds,170,2013-09-21 01:54:00
10:54 PM,73.9,66.0,76,29.82,10.0,South,8.1,-,0.00,Rain,Light Rain,180,2013-09-21 02:54:00
11:54 PM,72.0,66.9,84,29.82,10.0,Calm,Calm,-,0.00,Rain,Light Rain,0,2013-09-21 03:54:00